Location: Unspecified
(0.0000°N, 0.0000°E)
Time: 12:58:22
(UTC-04:00)

Hubble Space Telescope - Pass Details

Date: 29 September 2021
Orbit: 535 x 539 km, 28.5° (Epoch: 24 October)

Event Time Altitude Azimuth Distance (km) Brightness Sun altitude
Exits shadow 01:11:28 - 226° (SW) 2,347 3.6 -9.7°
Reaches altitude 10° 01:12:58 10° 220° (SW) 1,783 3.1 -9.3°
Maximum altitude 01:16:51 39° 150° (SSE) 807 2.0 -8.4°
Drops below altitude 10° 01:20:42 10° 80° (E) 1,777 5.0 -7.4°
Sets 01:23:04 0° 73° (ENE) 2,665 5.9 -6.8°
